SCP
0 0 0 0 0 0 0 0 0 0 0 0 0 0 0 0 0 0 -0 0 -0 0 0 0 0 0 0 0 0 0 0 0
0 0 0 0 0 0 0 0 0 0 0 0 0 0 0 0 0 0 0 0 0 -0 0 0 0 0 0 0 0 0 0 0
0 0 0 0 0 0 0 0 0 0 0 0 0 0 0 0 0 0 0 0 0 0 0 0 0 0 0 0 0 0 0 0
0 0 -0 0 0 0 0 0 0 0 0 0 0 0 -0 0 0 0 0 0 0 0 0 0 0 0 0 0 0 0 0 0
0 0 0 0 0 0 0 0 0 0 0 0 0 0 -0 -0 0 0 0 0 0 0 0 0 0 0 0 0 0 0 0 0
0 0 0 0 0 0 0 0 0 0 0 0 0 0 0 0 0 0 0 0 0 0 0 0 0 0 0 0 0 0 0 0
0 0 0 0 0 0 0 0 0 0 0 0 0 0 0 0 0 0 0 0 0 0 0 0 0 0 1 0 0 0 0 0
0 0 0 0 0 0 0 0 0 0 0 0 0 0 0 0 0 0 0 0 0 0 0 0 0 0 0 0 0 0 0 0
0 0 0 0 0 0 0 0 0 0 0 0 0 0 0 0 0 0 0 0 0 0 0 0 0 0 0 0 0 0 0 0
0 0 0 0 0 0 0 0 0 0 0 0 0 0 0 0 0 0 0 0 0 0 0 0 0 0 0 0 0 0 1 1
0 0 0 0 0 0 0 0 0 0 0 0 0 0 0 0 0 0 0 0 0 0 0 0 0 0 0 0 0 0 0 0
0 0 0 0 0 0 0 0 0 0 0 0 0 0 0 0 0 0 0 0 0 0 0 -0 0 0 0 0 0 0 0 0
0 0 0 0 0 0 0 0 0 0 0 0 0 0 0 0 0 0 0 0 0 0 0 0 -0 0 0 0 0 0 0 0
0 0 0 0 0 0 0 0 0 0 0 0 0 0 0 0 0 0 0 0 0 0 0 0 -0 -0 0 0 0 0 0 0
0 0 0 0 0 0 0 0 0 0 0 0 0 0 0 0 0 0 0 0 0 0 0 0 0 -0 -0 -0 0 0 0 0
0 0 0 0 0 0 0 0 -0 -0 0 0 0 0 0 0 0 0 0 0 0 0 0 0 0 -0 -0 -0 -0 0 0 0
0 0 0 0 0 0 0 0 0 0 -0 0 0 0 0 0 0 0 -0 -0 0 0 0 0 0 0 -0 -0 -0 -0 0 0
0 0 0 0 0 0 0 0 0 0 0 0 0 0 0 0 0 0 0 0 0 0 0 0 0 0 0 -0 -0 -0 -0 0
0 0 0 0 0 0 0 0 0 0 0 0 0 0 0 0 0 0 0 0 0 0 0 0 0 0 0 0 0 -0 -0 -0
Wind_Speed_500mb
8 13 4 7 10 1 13 8 7 4 5 10 45 31 40 43 37 61 76 86 85 90 93 99 102 107 108 98 90 80 69 58
12 14 19 14 5 8 7 8 7 7 9 7 35 40 41 43 47 36 74 81 87 84 101 97 100 102 103 103 94 85 75 66
6 14 13 13 11 9 5 6 10 6 4 9 21 22 29 49 75 32 63 58 70 79 80 90 92 96 97 103 102 94 84 71
6 14 20 32 10 7 7 10 3 5 2 13 16 25 43 59 71 75 41 12 25 45 60 59 73 84 91 97 101 99 89 80
9 12 16 14 15 9 6 4 4 2 3 15 26 26 43 60 64 74 72 51 30 25 11 23 46 62 76 86 90 94 97 89
10 6 3 7 10 13 8 7 6 5 10 14 23 23 36 43 68 65 69 71 58 42 33 11 7 27 51 66 74 80 90 91
5 4 4 3 4 7 3 6 6 8 8 19 20 23 35 30 36 60 61 68 62 56 50 37 5 16 35 36 59 71 72 86
3 5 6 4 8 8 4 5 7 7 7 24 30 36 40 47 41 44 49 56 60 54 51 49 39 9 19 34 47 35 58 81
5 7 3 7 10 11 13 18 8 9 7 19 22 29 42 49 49 42 42 44 53 56 55 53 46 34 14 20 30 53 57 61
3 6 3 6 11 12 19 11 11 12 16 18 13 1 39 49 51 50 43 36 38 42 46 50 54 41 25 19 12 19 45 53
7 5 8 4 8 6 6 2 11 6 17 24 35 16 17 38 44 41 37 39 36 30 42 48 54 52 42 20 25 24 23 41
5 7 9 6 8 13 12 7 19 20 19 25 33 8 2 43 45 39 33 32 42 41 31 41 45 45 44 39 19 12 32 37
5 5 6 5 18 16 10 4 15 17 20 25 6 17 48 50 51 42 39 35 37 39 38 26 38 39 43 44 39 22 12 20
5 4 12 12 2 5 5 2 16 24 28 43 49 57 64 64 60 57 48 41 33 39 44 30 30 47 51 52 47 44 32 20
13 10 4 14 10 11 13 19 20 28 32 38 50 54 58 65 68 63 60 54 43 39 39 41 29 34 46 43 46 38 37 26
4 2 16 16 12 14 17 21 20 22 28 34 46 56 65 72 72 78 73 68 51 43 42 44 38 36 38 46 46 45 39 34
8 17 16 29 31 18 11 12 22 31 39 40 51 57 56 66 76 72 73 74 67 53 48 49 43 42 40 46 52 48 44 40
11 20 13 15 19 30 26 31 37 45 53 55 56 63 66 70 67 72 74 69 67 62 53 46 43 43 42 43 48 48 44 42
15 17 18 21 23 30 40 41 40 47 54 56 70 69 65 70 69 69 68 66 62 58 53 43 43 44 45 50 44 47 40 39
Wind_Direction_500mb
334 46 53 310 51 269 96 19 73 261 304 280 351 355 357 344 328 224 214 218 213 210 209 213 215 217 217 217 219 220 219 220
306 11 33 78 331 64 12 128 154 293 76 348 351 345 345 357 334 275 224 214 213 211 210 214 217 218 219 221 222 223 222 224
40 20 336 11 14 5 108 98 152 164 22 51 2 350 9 6 10 347 212 212 216 213 216 216 216 217 222 223 222 224 224 228
34 310 109 76 58 71 86 326 23 113 166 358 337 357 44 29 25 35 71 176 186 201 211 210 215 220 222 224 225 227 228 230
23 343 12 39 356 19 109 61 27 94 278 15 360 347 33 50 35 38 45 56 83 113 131 193 207 215 223 227 229 232 232 231
164 196 201 7 5 6 89 72 299 124 307 2 3 359 15 33 53 41 44 48 54 59 50 73 225 234 227 224 231 233 237 237
165 208 96 282 295 295 163 205 138 267 63 354 349 5 1 20 37 56 35 39 37 37 41 42 0 232 214 216 225 233 236 241
0 30 58 83 26 60 55 309 219 186 80 353 44 27 8 17 19 32 41 33 33 30 29 30 21 338 233 238 230 232 233 240
290 360 76 24 342 106 101 38 340 59 47 360 44 27 16 11 16 19 26 34 31 24 25 22 12 9 316 276 249 240 243 247
181 19 64 196 356 68 108 90 70 43 359 20 6 199 37 21 8 3 8 16 33 22 16 16 11 8 5 266 234 224 232 232
124 157 284 119 359 10 20 107 25 65 38 357 342 304 216 9 360 2 358 355 350 4 8 6 4 5 355 13 245 231 190 181
137 148 222 183 273 314 301 258 10 5 14 2 356 358 278 336 339 341 352 342 337 336 343 343 347 353 357 356 6 268 246 234
154 186 281 194 283 327 166 247 345 355 333 336 327 284 297 310 313 320 325 332 324 331 323 326 329 345 351 350 343 0 327 260
90 167 260 191 270 197 211 249 313 316 301 301 299 297 292 295 296 303 309 316 317 310 316 313 322 322 336 334 347 348 338 318
179 218 172 174 231 261 289 301 319 317 318 310 306 304 300 295 292 288 293 299 305 301 303 311 298 301 310 321 332 343 336 317
36 266 207 225 236 250 270 284 314 326 325 315 299 299 295 289 286 283 282 287 292 287 288 287 293 287 298 309 314 324 333 333
257 268 249 255 256 233 255 289 305 318 326 322 315 301 296 290 289 287 281 277 276 274 270 275 287 286 290 299 302 305 315 321
224 224 213 260 273 237 264 283 291 302 312 313 318 305 298 291 282 282 283 278 275 268 260 264 272 274 277 282 285 292 301 309
234 250 263 283 289 272 271 285 291 290 289 294 308 309 298 294 284 279 279 277 273 266 258 259 261 260 268 278 281 281 291 295
Wind_Speed_850mb
8 13 4 7 10 1 13 8 7 4 5 10 45 31 40 43 37 61 76 86 85 90 93 99 102 107 108 98 90 80 69 58
12 14 19 14 5 8 7 8 7 7 9 7 35 40 41 43 47 36 74 81 87 84 101 97 100 102 103 103 94 85 75 66
6 14 13 13 11 9 5 6 10 6 4 9 21 22 29 49 75 32 63 58 70 79 80 90 92 96 97 103 102 94 84 71
6 14 20 32 10 7 7 10 3 5 2 13 16 25 43 59 71 75 41 12 25 45 60 59 73 84 91 97 101 99 89 80
9 12 16 14 15 9 6 4 4 2 3 15 26 26 43 60 64 74 72 51 30 25 11 23 46 62 76 86 90 94 97 89
10 6 3 7 10 13 8 7 6 5 10 14 23 23 36 43 68 65 69 71 58 42 33 11 7 27 51 66 74 80 90 91
5 4 4 3 4 7 3 6 6 8 8 19 20 23 35 30 36 60 61 68 62 56 50 37 5 16 35 36 59 71 72 86
3 5 6 4 8 8 4 5 7 7 7 24 30 36 40 47 41 44 49 56 60 54 51 49 39 9 19 34 47 35 58 81
5 7 3 7 10 11 13 18 8 9 7 19 22 29 42 49 49 42 42 44 53 56 55 53 46 34 14 20 30 53 57 61
3 6 3 6 11 12 19 11 11 12 16 18 13 1 39 49 51 50 43 36 38 42 46 50 54 41 25 19 12 19 45 53
7 5 8 4 8 6 6 2 11 6 17 24 35 16 17 38 44 41 37 39 36 30 42 48 54 52 42 20 25 24 23 41
5 7 9 6 8 13 12 7 19 20 19 25 33 8 2 43 45 39 33 32 42 41 31 41 45 45 44 39 19 12 32 37
5 5 6 5 18 16 10 4 15 17 20 25 6 17 48 50 51 42 39 35 37 39 38 26 38 39 43 44 39 22 12 20
5 4 12 12 2 5 5 2 16 24 28 43 49 57 64 64 60 57 48 41 33 39 44 30 30 47 51 52 47 44 32 20
13 10 4 14 10 11 13 19 20 28 32 38 50 54 58 65 68 63 60 54 43 39 39 41 29 34 46 43 46 38 37 26
4 2 16 16 12 14 17 21 20 22 28 34 46 56 65 72 72 78 73 68 51 43 42 44 38 36 38 46 46 45 39 34
8 17 16 29 31 18 11 12 22 31 39 40 51 57 56 66 76 72 73 74 67 53 48 49 43 42 40 46 52 48 44 40
11 20 13 15 19 30 26 31 37 45 53 55 56 63 66 70 67 72 74 69 67 62 53 46 43 43 42 43 48 48 44 42
15 17 18 21 23 30 40 41 40 47 54 56 70 69 65 70 69 69 68 66 62 58 53 43 43 44 45 50 44 47 40 39
Wind_Direction_850mb
334 46 53 310 51 269 96 19 73 261 304 280 351 355 357 344 328 224 214 218 213 210 209 213 215 217 217 217 219 220 219 220
306 11 33 78 331 64 12 128 154 293 76 348 351 345 345 357 334 275 224 214 213 211 210 214 217 218 219 221 222 223 222 224
40 20 336 11 14 5 108 98 152 164 22 51 2 350 9 6 10 347 212 212 216 213 216 216 216 217 222 223 222 224 224 228
34 310 109 76 58 71 86 326 23 113 166 358 337 357 44 29 25 35 71 176 186 201 211 210 215 220 222 224 225 227 228 230
23 343 12 39 356 19 109 61 27 94 278 15 360 347 33 50 35 38 45 56 83 113 131 193 207 215 223 227 229 232 232 231
164 196 201 7 5 6 89 72 299 124 307 2 3 359 15 33 53 41 44 48 54 59 50 73 225 234 227 224 231 233 237 237
165 208 96 282 295 295 163 205 138 267 63 354 349 5 1 20 37 56 35 39 37 37 41 42 0 232 214 216 225 233 236 241
0 30 58 83 26 60 55 309 219 186 80 353 44 27 8 17 19 32 41 33 33 30 29 30 21 338 233 238 230 232 233 240
290 360 76 24 342 106 101 38 340 59 47 360 44 27 16 11 16 19 26 34 31 24 25 22 12 9 316 276 249 240 243 247
181 19 64 196 356 68 108 90 70 43 359 20 6 199 37 21 8 3 8 16 33 22 16 16 11 8 5 266 234 224 232 232
124 157 284 119 359 10 20 107 25 65 38 357 342 304 216 9 360 2 358 355 350 4 8 6 4 5 355 13 245 231 190 181
137 148 222 183 273 314 301 258 10 5 14 2 356 358 278 336 339 341 352 342 337 336 343 343 347 353 357 356 6 268 246 234
154 186 281 194 283 327 166 247 345 355 333 336 327 284 297 310 313 320 325 332 324 331 323 326 329 345 351 350 343 0 327 260
90 167 260 191 270 197 211 249 313 316 301 301 299 297 292 295 296 303 309 316 317 310 316 313 322 322 336 334 347 348 338 318
179 218 172 174 231 261 289 301 319 317 318 310 306 304 300 295 292 288 293 299 305 301 303 311 298 301 310 321 332 343 336 317
36 266 207 225 236 250 270 284 314 326 325 315 299 299 295 289 286 283 282 287 292 287 288 287 293 287 298 309 314 324 333 333
257 268 249 255 256 233 255 289 305 318 326 322 315 301 296 290 289 287 281 277 276 274 270 275 287 286 290 299 302 305 315 321
224 224 213 260 273 237 264 283 291 302 312 313 318 305 298 291 282 282 283 278 275 268 260 264 272 274 277 282 285 292 301 309
234 250 263 283 289 272 271 285 291 290 289 294 308 309 298 294 284 279 279 277 273 266 258 259 261 260 268 278 281 281 291 295